Tiempo Historia de Point Mugu, CA

Change the Weather History Date:

Viernes, Marzo 9, 2012

  Actual Average Record
Temperature  
Temperatura media 64 ° F -  
Temperatura máxima 80 ° F 61 ° F 86 ° F (2014)
Temperatura mínima 46 ° F 44 ° F 39 ° F (2002)
Degree Days  
Grados día de calefacción 1    
Growing Degree Days 14 (Base 50)    
Moisture  
Punto de rocío 30 ° F    
Average Humidity 38    
Maximum Humidity 80    
Minimum Humidity 10    
Precipitación  
Precipitación 0.00 pul - - ()
Presión al nivel del mar  
Presión al nivel del mar 30.16 pul    
Viento  
Velocidad del viento 8 mph (NNE)    
Velocidad máxima del viento 15 mph    
Max Gust Speed 23 mph    
Visibilidad 7 Millas    
Eventos      
Averages and records for this station are not official NWS values.
T = Trace of Precipitation, MM = Missing Value Source: NWS Daily Summary

Daily Weather History Graph

Daily Weather History Graph

Search for Another Location

Airport:

Trip Planner

Search our weather history database for the weather conditions in past years. The results will help you decide how hot, cold, wet, or windy it might be!

Date:

Astronomía

Mar. 09, 2012 Salida Puesta
Hora real 6:14 AM PST 5:59 PM PST
Crepúsculo civil 5:49 AM PST 6:24 PM PST
Crepúsculo náutico 5:20 AM PST 6:53 PM PST
Crepúsculo astronómico 4:51 AM PST 7:23 PM PST
Luna 7:56 PM PST (3/9) 6:42 AM PST (3/9)
Horas de luz 12h 35m
Horas de luz
11h 45m
Luna llena, 97% of the Moon is Illuminated
Mar 9
Luna llena
Mar 14
Cuarto menguante
Mar 22
Nueva
Mar 30
Cuarto creciente
Abr 6
Luna llena

Hourly Weather History & Observations

Hora (PST) Temp. Punto de rocío Humedad Presión Visibilidad Wind Dir Velocidad del viento Velocidad de ráfagas Precip Eventos Condiciones
12:54 AM 57.9 ° F 19.9 ° F 23% 30.26 pul - NE 5.8 mph - N/A   Despejado
1:54 AM 48.9 ° F 27.0 ° F 43% 30.25 pul - Norte 8.1 mph - N/A   Despejado
2:54 AM 48.9 ° F 27.0 ° F 43% 30.23 pul - NNE 9.2 mph - N/A   Despejado
3:54 AM 48.9 ° F 21.9 ° F 35% 30.22 pul - NE 9.2 mph - N/A   Despejado
4:54 AM 57.9 ° F 17.1 ° F 20% 30.22 pul - NE 10.4 mph - N/A   Despejado
5:54 AM 59.0 ° F 15.1 ° F 18% 30.22 pul 7.0 mi NE 9.2 mph - N/A   Despejado
6:54 AM 63.0 ° F 12.9 ° F 14% 30.23 pul 7.0 mi ENE 12.7 mph 21.9 mph N/A   Despejado
7:54 AM 69.1 ° F 16.0 ° F 13% 30.24 pul 7.0 mi ENE 13.8 mph 20.7 mph N/A   Despejado
8:54 AM 73.9 ° F 16.0 ° F 11% 30.24 pul 7.0 mi ENE 13.8 mph 23.0 mph N/A   Despejado
9:54 AM 78.1 ° F 17.1 ° F 10% 30.22 pul 7.0 mi NE 12.7 mph 20.7 mph N/A   Despejado
10:54 AM 80.1 ° F 19.0 ° F 10% 30.21 pul 7.0 mi NE 15.0 mph 21.9 mph N/A   Despejado
11:54 AM 72.0 ° F 28.9 ° F 20% 30.19 pul 7.0 mi SSE 13.8 mph - N/A   Despejado
12:54 PM 73.0 ° F 24.1 ° F 16% 30.15 pul 7.0 mi Sur 9.2 mph - N/A   Despejado
1:54 PM 71.1 ° F 41.0 ° F 34% 30.12 pul 7.0 mi Oeste 10.4 mph - N/A   Despejado
2:54 PM 73.0 ° F 30.9 ° F 21% 30.11 pul 7.0 mi ONO 10.4 mph 21.9 mph N/A   Despejado
3:54 PM 64.9 ° F 37.9 ° F 37% 30.10 pul 7.0 mi Oeste 13.8 mph 20.7 mph N/A   Despejado
4:54 PM 61.0 ° F 46.0 ° F 58% 30.09 pul 7.0 mi Oeste 8.1 mph - N/A   Despejado
5:54 PM 57.9 ° F 44.1 ° F 60% 30.09 pul 7.0 mi Sin viento Sin viento - N/A   Despejado
6:54 PM 57.0 ° F 43.0 ° F 59% 30.07 pul 7.0 mi Sin viento Sin viento - N/A   Despejado
7:54 PM 55.0 ° F 42.1 ° F 62% 30.07 pul 7.0 mi Sin viento Sin viento - N/A   Despejado
8:54 PM 52.0 ° F 43.0 ° F 71% 30.06 pul 7.0 mi Sin viento Sin viento - N/A   Despejado
9:54 PM 48.0 ° F 41.0 ° F 77% 30.06 pul 7.0 mi Sin viento Sin viento - N/A   Despejado
10:54 PM 48.0 ° F 42.1 ° F 80% 30.04 pul - Norte 3.5 mph - N/A   Despejado
11:54 PM 46.9 ° F 41.0 ° F 80% 30.04 pul - NE 3.5 mph - N/A   Despejado